{"data":{"norad_id":69920,"intl_designator":"2026-156BD","name":"MARINA","alt_names":[],"object_type":"PAYLOAD","status":"ACTIVE","operator":null,"country":"SVK","launch_date":"2026-07-07","launch_site_code":"AFWTR","launch_vehicle":null,"mission":null,"orbit_class":"UNKNOWN","rcs_meters":null,"size_class":null,"mass_kg":null,"dimensions":null,"purposes":["comms","tech_demo"],"wikipedia_slug":null,"has_3d_model":false,"image_url":null,"decayed_at":null,"tle_current":{"epoch":"2026-09-19T10:43:11.738496Z","epoch_age_seconds":105072,"freshness":"FRESH","line1":"1 69920U 26156BD  26262.44666364  .00001315  00000+0  13464-3 0  9993","line2":"2 69920  97.7440 161.6799 0005835 270.1869  89.8681 14.92176795 11050","mean_motion":14.92176795,"eccentricity":0.0005835,"inclination_deg":97.744,"raan_deg":161.6799,"arg_perigee_deg":270.1869,"mean_anomaly_deg":89.8681,"bstar":0.00013464,"rev_number":1105,"period_min":96.503310118825,"perigee_km":587.08294941663,"apogee_km":595.21610679493,"semimajor_km":6969.2865281058,"source":"CELESTRAK","updated_at":"2026-09-20T09:00:48.040948Z"}}}